Lewisburg, WV

1:24 PM EDT on April 23, 2018 (GMT -0400)
Greenbrier Valley

Weather History for KLWB - April, 2014

Change the Weather History Date:

Wednesday, April 2, 2014

  Actual Average Record
Temperature  
Mean Temperature 56 °F -  
Max Temperature 76 °F 61 °F 86 °F (2010)
Min Temperature 35 °F 34 °F 21 °F (1992)
Degree Days  
Heating Degree Days 9    
Month to date heating degree days 20  
Growing Degree Days 6 (Base 50)    
Moisture  
Dew Point 35 °F    
Average Humidity 52    
Maximum Humidity 79    
Minimum Humidity 24    
Precipitation  
Precipitation T in - - ()
Month to date precipitation T  
Year to date precipitation 4.68  
Snow  
Snow 0.00 in - - ()
Month to date snowfall 0.0  
Snow Depth 0.00 in    
Sea Level Pressure  
Sea Level Pressure 30.08 in    
Wind  
Wind Speed 4 mph (West)    
Max Wind Speed 13 mph    
Max Gust Speed 20 mph    
Visibility 10 miles    
Events Rain , Thunderstorm    
Averages and records for this station are not official NWS values.
T = Trace of Precipitation, MM = Missing Value Source: NWS Daily Summary

Daily Weather History Graph

Daily Weather History Graph

Search for Another Location

Airport or City:

Astronomy

Apr. 02, 2014 Rise Set
Actual Time 7:05 AM EDT 7:45 PM EDT
Civil Twilight 6:38 AM EDT 8:12 PM EDT
Nautical Twilight 6:07 AM EDT 8:43 PM EDT
Astronomical Twilight 5:35 AM EDT 9:15 PM EDT
Moon 8:51 AM EDT (4/2) 11:03 PM EDT (4/2)
Length of Visible Light 13h 33m
Length of Day
12h 40m
Waxing Crescent, 10% of the Moon is Illuminated
Apr 2
Waxing Crescent
Apr 7
First Quarter
Apr 15
Full
Apr 22
Last Quarter
Apr 29
New

Hourly Weather History & Observations

Time (EDT) Temp. Windchill Dew Point Humidity Pressure Visibility Wind Dir Wind Speed Gust Speed Precip Events Conditions
12:15 AM 51.4 °F - 31.3 °F 46% 30.07 in 10.0 mi Calm Calm - N/A   Clear
12:35 AM 49.3 °F - 32.4 °F 52% 30.07 in 10.0 mi Calm Calm - N/A   Clear
12:55 AM 45.9 °F - 30.9 °F 56% 30.08 in 10.0 mi Calm Calm - N/A   Clear
1:15 AM 46.6 °F - 32.0 °F 57% 30.08 in 10.0 mi Calm Calm - N/A   Clear
1:35 AM 46.0 °F - 31.5 °F 57% 30.08 in 10.0 mi Calm Calm - N/A   Clear
1:55 AM 46.2 °F - 32.0 °F 58% 30.07 in 10.0 mi Calm Calm - N/A   Clear
2:15 AM 48.2 °F - 31.1 °F 52% 30.07 in 10.0 mi Calm Calm - N/A   Clear
2:35 AM 45.0 °F - 30.9 °F 58% 30.06 in 10.0 mi Calm Calm - N/A   Clear
2:55 AM 45.5 °F - 31.1 °F 57% 30.06 in 10.0 mi Calm Calm - N/A   Clear
3:15 AM 44.4 °F - 31.3 °F 60% 30.06 in 10.0 mi Calm Calm - N/A   Clear
3:35 AM 40.6 °F - 31.8 °F 71% 30.05 in 10.0 mi Calm Calm - N/A   Clear
3:55 AM 40.8 °F - 32.0 °F 71% 30.05 in 10.0 mi Calm Calm - N/A   Clear
4:15 AM 40.5 °F 38.4 °F 32.0 °F 72% 30.05 in 10.0 mi NNE 3.5 mph - N/A   Clear
4:35 AM 39.4 °F - 32.0 °F 75% 30.05 in 10.0 mi Calm Calm - N/A   Clear
4:55 AM 39.2 °F - 32.0 °F 75% 30.05 in 10.0 mi Calm Calm - N/A   Clear
5:15 AM 38.8 °F 35.4 °F 31.6 °F 75% 30.05 in 10.0 mi North 4.6 mph - N/A   Clear
5:35 AM 39.4 °F 37.2 °F 32.0 °F 75% 30.05 in 10.0 mi North 3.5 mph - N/A   Clear
5:55 AM 38.5 °F - 31.8 °F 77% 30.06 in 10.0 mi Calm Calm - N/A   Clear
6:15 AM 37.9 °F - 30.9 °F 76% 30.07 in 10.0 mi Calm Calm - N/A   Clear
6:35 AM 40.1 °F - 31.8 °F 72% 30.09 in 10.0 mi Calm Calm - N/A   Clear
6:55 AM 37.0 °F - 31.8 °F 81% 30.08 in 10.0 mi Calm Calm - N/A   Clear
7:15 AM 36.0 °F 32.1 °F 31.1 °F 82% 30.10 in 10.0 mi NE 4.6 mph - N/A   Clear
8:35 AM 45.3 °F - 33.6 °F 64% 30.12 in 10.0 mi Calm Calm - N/A   Clear
8:55 AM 47.3 °F - 35.6 °F 64% 30.12 in 10.0 mi Calm Calm - N/A   Clear
9:15 AM 50.2 °F - 34.7 °F 55% 30.12 in 10.0 mi Calm Calm - N/A   Clear
9:35 AM 53.1 °F - 35.2 °F 51% 30.12 in 10.0 mi Calm Calm - N/A   Clear
9:55 AM 54.9 °F - 35.1 °F 47% 30.11 in 10.0 mi South 4.6 mph - N/A   Clear
10:15 AM 57.9 °F - 34.0 °F 41% 30.11 in 10.0 mi SW 3.5 mph - N/A   Clear
10:35 AM 59.7 °F - 32.0 °F 35% 30.12 in 10.0 mi SW 5.8 mph - N/A   Clear
10:55 AM 60.8 °F - 32.2 °F 34% 30.12 in 10.0 mi SW 5.8 mph - N/A   Clear
11:15 AM 62.8 °F - 33.3 °F 33% 30.13 in 10.0 mi SW 4.6 mph - N/A   Clear
11:35 AM 64.4 °F - 32.0 °F 30% 30.12 in 10.0 mi SSW 3.5 mph - N/A   Clear
11:55 AM 65.8 °F - 32.0 °F 28% 30.12 in 10.0 mi WSW 6.9 mph - N/A   Clear
12:35 PM 68.9 °F - 33.6 °F 27% 30.11 in 10.0 mi SW 11.5 mph 16.1 mph N/A   Clear
12:55 PM 70.3 °F - 34.0 °F 26% 30.10 in 10.0 mi WSW 11.5 mph 17.3 mph N/A   Clear
1:15 PM 71.4 °F - 35.1 °F 26% 30.10 in 10.0 mi West 11.5 mph 16.1 mph N/A   Clear
1:35 PM 70.9 °F - 34.5 °F 26% 30.09 in 10.0 mi WNW 9.2 mph 18.4 mph N/A   Clear
1:55 PM 72.0 °F - 34.3 °F 25% 30.10 in 10.0 mi WSW 12.7 mph 19.6 mph N/A   Clear
2:15 PM 72.5 °F - 34.5 °F 25% 30.09 in 10.0 mi SW 10.4 mph 17.3 mph N/A   Clear
2:35 PM 73.2 °F - 33.6 °F 23% 30.08 in 10.0 mi SW 8.1 mph 17.3 mph N/A   Clear
2:55 PM 72.9 °F - 34.5 °F 25% 30.07 in 10.0 mi WSW 9.2 mph - N/A   Clear
3:15 PM 75.4 °F - 35.2 °F 23% 30.06 in 10.0 mi WSW 10.4 mph 18.4 mph N/A   Clear
3:35 PM 75.4 °F - 34.9 °F 23% 30.05 in 10.0 mi WSW 6.9 mph 18.4 mph N/A   Clear
3:55 PM 75.7 °F - 36.1 °F 24% 30.05 in 10.0 mi West 10.4 mph 16.1 mph N/A   Scattered Clouds
4:15 PM 75.6 °F - 36.3 °F 24% 30.05 in 10.0 mi West 10.4 mph - N/A   Scattered Clouds
4:35 PM 74.8 °F - 36.3 °F 25% 30.05 in 10.0 mi NW 8.1 mph - N/A   Clear
4:55 PM 73.0 °F - 36.9 °F 27% 30.05 in 10.0 mi WNW 6.9 mph - N/A   Clear
5:15 PM 73.4 °F - 36.5 °F 26% 30.05 in 10.0 mi Calm Calm - N/A   Clear
5:35 PM 73.8 °F - 37.0 °F 26% 30.05 in 10.0 mi West 8.1 mph - N/A   Clear
6:15 PM 73.2 °F - 36.3 °F 26% 30.05 in 10.0 mi West 9.2 mph - N/A   Clear
6:35 PM 72.1 °F - 36.5 °F 27% 30.05 in 10.0 mi Calm Calm - N/A   Clear
6:55 PM 71.6 °F - 37.0 °F 28% 30.05 in 10.0 mi Calm Calm - N/A   Clear
7:15 PM 70.7 °F - 37.0 °F 29% 30.04 in 10.0 mi Calm Calm - N/A   Clear
7:35 PM 69.3 °F - 37.4 °F 31% 30.05 in 10.0 mi Calm Calm - N/A   Clear
7:55 PM 68.0 °F - 37.0 °F 32% 30.05 in 10.0 mi Calm Calm - N/A   Clear
8:15 PM 65.1 °F - 38.3 °F 37% 30.05 in 10.0 mi Calm Calm - N/A   Clear
8:35 PM 61.5 °F - 39.7 °F 45% 30.06 in 10.0 mi NNE 3.5 mph - N/A   Clear
8:55 PM 63.1 °F - 40.1 °F 43% 30.07 in 10.0 mi Calm Calm - N/A   Mostly Cloudy
9:15 PM 62.2 °F - 40.1 °F 44% 30.07 in 10.0 mi North 3.5 mph - N/A   Scattered Clouds
9:35 PM 62.6 °F - 39.9 °F 43% 30.08 in 10.0 mi Calm Calm - N/A   Clear
9:55 PM 62.2 °F - 39.9 °F 44% 30.07 in 10.0 mi Calm Calm - N/A   Mostly Cloudy
10:15 PM 61.9 °F - 40.1 °F 45% 30.05 in 10.0 mi Calm Calm - N/A   Mostly Cloudy
10:35 PM 62.6 °F - 39.6 °F 43% 30.05 in 10.0 mi Calm Calm - N/A   Overcast
10:55 PM 59.9 °F - 42.1 °F 52% 30.06 in 10.0 mi West 3.5 mph - N/A Thunderstorm Overcast
11:15 PM 61.7 °F - 40.6 °F 46% 30.09 in 10.0 mi NNW 4.6 mph - N/A   Overcast
11:35 PM 60.6 °F - 41.0 °F 48% 30.10 in 10.0 mi Calm Calm - N/A Thunderstorm Unknown
11:55 PM 58.5 °F - 45.5 °F 62% 30.11 in 10.0 mi ENE 6.9 mph - N/A Rain Light Rain